EW5836 Weather Reports


Display with metric or nautical units.
time (UTC)temp
F
wind
direction
speed
MPH
gust
MPH
rain 1hr
in
rain 24hr
in
rain mn
in
humidity
%
barometer
mb
20260902002544 73 315 0.0 0.0 0.00 0.00 0.00 77 1019.7
20260902002058 73 315 0.0 0.0 0.00 0.00 0.00 78 1019.7
20260902001534 73 315 0.0 0.0 0.00 0.00 0.00 78 1019.6
20260902001043 73 314 0.0 0.0 0.00 0.00 0.00 77 1019.6
20260902000547 73 314 0.0 0.0 0.00 0.00 0.00 77 1019.7
20260902000035 73 314 0.0 0.0 0.00 0.00 0.00 77 1019.7
20260901235537 73 314 0.0 0.0 0.00 0.00 0.00 77 1019.7
20260901235042 73 314 0.0 0.0 0.00 0.00 0.00 76 1019.6
20260901234542 73 314 0.0 0.0 0.00 0.00 0.00 76 1019.7
20260901234037 74 314 0.0 0.0 0.00 0.00 0.00 75 1019.7
20260901233542 74 314 0.0 0.0 0.00 0.00 0.00 75 1019.7
20260901233032 74 315 0.0 0.0 0.00 0.00 0.00 75 1019.8
20260901232535 74 315 0.0 0.0 0.00 0.00 0.00 75 1019.8
20260901232041 74 314 0.0 0.0 0.00 0.00 0.00 75 1019.8
20260901231540 74 314 0.0 0.0 0.00 0.00 0.00 74 1019.7
20260901231120 74 314 0.0 0.0 0.00 0.00 0.00 74 1019.7
20260901230532 74 314 0.0 0.0 0.00 0.00 0.00 74 1019.7
20260901230042 74 314 0.0 0.0 0.00 0.00 0.00 74 1019.7
20260901225602 74 316 0.0 0.0 0.00 0.00 0.00 74 1019.7
20260901225046 74 317 0.0 0.0 0.00 0.00 0.00 74 1019.8
20260901224550 74 317 0.0 0.0 0.00 0.00 0.00 74 1019.8
20260901224035 75 317 0.0 0.0 0.00 0.00 0.00 73 1019.8
20260901223559 75 317 0.0 0.0 0.00 0.00 0.00 75 1019.7
20260901223118 75 317 0.0 0.0 0.00 0.00 0.00 75 1019.7
20260901222533 75 317 0.0 0.0 0.00 0.00 0.00 73 1019.7
20260901222107 75 317 0.0 0.0 0.00 0.00 0.00 73 1019.7
20260901221604 75 317 0.0 0.0 0.00 0.00 0.00 73 1019.7
20260901221034 75 317 0.0 0.0 0.00 0.00 0.00 73 1019.7
20260901220555 75 317 0.0 0.0 0.00 0.00 0.00 73 1019.7
20260901220109 75 317 0.0 0.0 0.00 0.00 0.00 73 1019.7
20260901215543 75 317 0.0 0.0 0.00 0.00 0.00 73 1019.7
20260901215055 75 317 0.0 0.0 0.00 0.00 0.00 74 1019.7
20260901214557 75 317 0.0 0.0 0.00 0.00 0.00 74 1019.6
20260901214046 75 317 0.0 0.0 0.00 0.00 0.00 73 1019.6
20260901213543 75 317 0.0 0.0 0.00 0.00 0.00 74 1019.6
20260901213035 75 317 0.0 0.0 0.00 0.00 0.00 74 1019.6
20260901212541 75 317 0.0 0.0 0.00 0.00 0.00 74 1019.6
20260901212037 75 317 0.0 0.0 0.00 0.00 0.00 73 1019.6
20260901211611 75 317 0.0 0.0 0.00 0.00 0.00 74 1019.6
20260901211100 75 317 0.0 0.0 0.00 0.00 0.00 74 1019.6
20260901210534 75 317 0.0 0.0 0.00 0.00 0.00 75 1019.6
20260901210042 76 317 0.0 0.0 0.00 0.00 0.00 74 1019.5
20260901205539 76 317 0.0 0.0 0.00 0.00 0.00 73 1019.5
20260901205048 75 317 0.0 0.0 0.00 0.00 0.00 73 1019.5
20260901204536 75 317 0.0 0.0 0.00 0.00 0.00 73 1019.5
20260901204108 75 317 0.0 0.0 0.00 0.00 0.00 73 1019.5
20260901203548 75 317 0.0 0.0 0.00 0.00 0.00 73 1019.5
20260901203046 75 316 0.0 0.0 0.00 0.00 0.00 73 1019.5
20260901202548 76 317 0.0 0.0 0.00 0.00 0.00 73 1019.6
20260901202050 76 317 0.0 4.0 0.00 0.00 0.00 73 1019.5
20260901201548 76 317 0.0 5.0 0.00 0.00 0.00 73 1019.5
20260901201105 76 317 3.0 5.0 0.00 0.00 0.00 73 1019.6
20260901200546 76 318 0.0 0.0 0.00 0.00 0.00 73 1019.5
20260901200035 76 318 0.0 5.0 0.00 0.00 0.00 73 1019.4
20260901195558 76 318 1.0 5.0 0.00 0.00 0.00 73 1019.4
20260901195040 76 318 0.0 4.0 0.00 0.00 0.00 74 1019.4
20260901194544 76 319 0.0 0.0 0.00 0.00 0.00 74 1019.3
20260901194035 76 319 0.0 0.0 0.00 0.00 0.00 74 1019.3
20260901193540 76 319 0.0 4.0 0.00 0.00 0.00 74 1019.3
20260901193049 76 319 1.0 5.0 0.00 0.00 0.00 74 1019.3
20260901192554 76 319 3.0 5.0 0.00 0.00 0.00 74 1019.2
20260901192040 76 320 1.0 4.0 0.00 0.00 0.00 74 1019.1
20260901191541 76 324 0.0 4.0 0.00 0.00 0.00 74 1019.1
20260901191032 77 325 3.0 4.0 0.00 0.00 0.00 74 1019.0
20260901190537 77 325 0.0 3.0 0.00 0.00 0.00 73 1019.0
20260901190038 77 325 0.0 4.0 0.00 0.00 0.00 73 1019.0
20260901185541 77 325 2.0 4.0 0.00 0.00 0.00 73 1019.0
20260901185051 77 335 0.0 0.0 0.00 0.00 0.00 73 1018.9
20260901184555 77 337 0.0 0.0 0.00 0.00 0.00 73 1018.9
20260901184047 77 337 0.0 0.0 0.00 0.00 0.00 72 1018.8
20260901183549 78 341 0.0 0.0 0.00 0.00 0.00 72 1018.7
20260901183039 78 342 0.0 0.0 0.00 0.00 0.00 71 1018.7
20260901182541 78 342 0.0 0.0 0.00 0.00 0.00 71 1018.6
20260901182116 78 349 0.0 0.0 0.00 0.00 0.00 70 1018.5
20260901181534 79 349 0.0 0.0 0.00 0.00 0.00 70 1018.5
20260901181041 79 349 0.0 0.0 0.00 0.00 0.00 70 1018.5
20260901180542 79 349 0.0 0.0 0.00 0.00 0.00 69 1018.4
20260901180034 79 350 0.0 0.0 0.00 0.00 0.00 69 1018.4
20260901175557 80 350 0.0 0.0 0.00 0.00 0.00 69 1018.4
20260901175046 80 350 0.0 0.0 0.00 0.00 0.00 68 1018.3
20260901174548 80 354 0.0 0.0 0.00 0.00 0.00 67 1018.3
20260901174037 81 354 0.0 0.0 0.00 0.00 0.00 67 1018.2
20260901173540 81 354 0.0 0.0 0.00 0.00 0.00 66 1018.2
20260901173057 81 354 0.0 0.0 0.00 0.00 0.00 66 1018.2
20260901172537 81 354 0.0 0.0 0.00 0.00 0.00 65 1018.2
20260901172055 82 354 0.0 0.0 0.00 0.00 0.00 65 1018.2
20260901171533 82 354 0.0 0.0 0.00 0.00 0.00 64 1018.2
20260901171046 82 8 0.0 0.0 0.00 0.00 0.00 62 1018.2
20260901170547 83 107 0.0 0.0 0.00 0.00 0.00 62 1018.1
20260901165545 84 108 0.0 0.0 0.00 0.00 0.00 61 1018.1
20260901165059 84 108 0.0 0.0 0.00 0.00 0.00 59 1018.1
20260901164540 84 108 0.0 0.0 0.00 0.00 0.00 59 1018.2
20260901164100 84 107 0.0 0.0 0.00 0.00 0.00 58 1018.0
20260901163541 84 108 0.0 0.0 0.00 0.00 0.00 58 1018.0
20260901163118 84 108 0.0 0.0 0.00 0.00 0.00 58 1018.0
20260901162534 84 108 0.0 0.0 0.00 0.00 0.00 57 1018.0
20260901162043 84 108 0.0 0.0 0.00 0.00 0.00 57 1018.1
20260901161608 84 106 0.0 0.0 0.00 0.00 0.00 57 1018.1
20260901161044 84 106 0.0 0.0 0.00 0.00 0.00 56 1018.2
20260901160548 85 106 0.0 0.0 0.00 0.00 0.00 56 1018.2
20260901160037 85 105 0.0 1.0 0.00 0.00 0.00 56 1018.2
20260901155541 85 105 0.0 7.0 0.00 0.00 0.00 56 1018.2
20260901155040 85 152 2.0 7.0 0.00 0.00 0.00 56 1018.3
20260901154545 85 129 0.0 5.0 0.00 0.00 0.00 57 1018.2
20260901154034 85 29 1.0 5.0 0.00 0.00 0.00 56 1018.2
20260901153540 85 114 0.0 10.0 0.00 0.00 0.00 56 1018.2
20260901153052 85 127 1.0 10.0 0.00 0.00 0.00 57 1018.2
20260901152542 85 168 0.0 2.0 0.00 0.00 0.00 56 1018.2
20260901152101 85 160 0.0 4.0 0.00 0.00 0.00 56 1018.2
20260901151542 85 156 0.0 4.0 0.00 0.00 0.00 56 1018.3
20260901151038 86 179 0.0 0.0 0.00 0.00 0.00 56 1018.3
20260901150540 85 111 0.0 6.0 0.00 0.00 0.00 56 1018.3
20260901150051 85 152 0.0 6.0 0.00 0.00 0.00 56 1018.3
20260901145550 85 149 1.0 5.0 0.00 0.00 0.00 56 1018.3
20260901145036 85 154 0.0 4.0 0.00 0.00 0.00 56 1018.4
20260901144538 85 79 0.0 8.0 0.00 0.00 0.00 54 1018.4
20260901144058 85 79 0.0 8.0 0.00 0.00 0.00 53 1018.4
20260901143535 85 129 3.0 7.0 0.00 0.00 0.00 53 1018.5
20260901143046 85 85 0.0 5.0 0.00 0.00 0.00 54 1018.5
20260901142550 84 166 0.0 5.0 0.00 0.00 0.00 54 1018.5
20260901142038 84 152 0.0 7.0 0.00 0.00 0.00 55 1018.6
20260901141543 84 118 0.0 8.0 0.00 0.00 0.00 56 1018.7
20260901141034 84 128 2.0 8.0 0.00 0.00 0.00 55 1018.7
20260901140537 84 84 0.0 6.0 0.00 0.00 0.00 55 1018.7
20260901140041 84 137 1.0 5.0 0.00 0.00 0.00 57 1018.7
20260901135542 84 140 0.0 9.0 0.00 0.00 0.00 57 1018.7
20260901135041 84 140 0.0 9.0 0.00 0.00 0.00 58 1018.8
20260901134545 84 142 1.0 11.0 0.00 0.00 0.00 60 1018.7
20260901134055 84 100 1.0 11.0 0.00 0.00 0.00 60 1018.8
20260901133536 84 132 2.0 10.0 0.00 0.00 0.00 59 1018.7
20260901133037 83 21 0.0 8.0 0.00 0.00 0.00 60 1018.7
20260901132541 83 119 4.0 9.0 0.00 0.00 0.00 60 1018.7
20260901132033 83 154 0.0 9.0 0.00 0.00 0.00 60 1018.7
20260901131534 84 120 1.0 11.0 0.00 0.00 0.00 59 1018.8
20260901131036 84 154 1.0 10.0 0.00 0.00 0.00 59 1018.8
20260901130540 84 125 0.0 10.0 0.00 0.00 0.00 60 1018.8
20260901130050 84 153 5.0 10.0 0.00 0.00 0.00 60 1018.9
20260901125533 84 105 0.0 11.0 0.00 0.00 0.00 61 1019.0
20260901125042 83 127 5.0 16.0 0.00 0.00 0.00 60 1019.0
20260901124604 83 160 8.0 16.0 0.00 0.00 0.00 61 1019.0
20260901124034 83 145 6.0 15.0 0.00 0.00 0.00 60 1019.1
20260901123559 84 157 2.0 9.0 0.00 0.00 0.00 60 1019.0
20260901123039 84 104 4.0 9.0 0.00 0.00 0.00 61 1019.1
20260901122542 83 83 3.0 11.0 0.00 0.00 0.00 60 1019.0
20260901122058 83 124 7.0 12.0 0.00 0.00 0.00 59 1019.0
20260901121533 83 151 2.0 11.0 0.00 0.00 0.00 60 1019.1
20260901121041 84 158 6.0 11.0 0.00 0.00 0.00 61 1019.1
20260901120545 84 148 7.0 13.0 0.00 0.00 0.00 60 1019.1
20260901120040 84 160 3.0 12.0 0.00 0.00 0.00 62 1019.1
20260901115541 83 135 1.0 8.0 0.00 0.00 0.00 61 1019.2
20260901115042 83 192 1.0 10.0 0.00 0.00 0.00 62 1019.2
20260901114544 83 122 3.0 11.0 0.00 0.00 0.00 61 1019.3
20260901114101 83 150 6.0 11.0 0.00 0.00 0.00 61 1019.3
20260901113540 83 139 2.0 8.0 0.00 0.00 0.00 59 1019.3
20260901113033 83 138 1.0 11.0 0.00 0.00 0.00 58 1019.3
20260901112538 83 146 3.0 13.0 0.00 0.00 0.00 57 1019.4
20260901112049 83 104 8.0 13.0 0.00 0.00 0.00 57 1019.4
20260901111548 84 147 8.0 12.0 0.00 0.00 0.00 55 1019.4
20260901111037 84 178 2.0 9.0 0.00 0.00 0.00 55 1019.4
20260901110537 83 68 0.0 9.0 0.00 0.00 0.00 53 1019.5
20260901110058 84 104 4.0 9.0 0.00 0.00 0.00 53 1019.5
20260901105600 83 170 0.0 10.0 0.00 0.00 0.00 52 1019.6
20260901105059 84 83 5.0 10.0 0.00 0.00 0.00 49 1019.7
20260901104534 84 152 0.0 8.0 0.00 0.00 0.00 47 1019.6
20260901104107 84 163 4.0 8.0 0.00 0.00 0.00 46 1019.7
20260901103549 83 118 0.0 0.0 0.00 0.00 0.00 44 1019.7
20260901103043 83 118 0.0 8.0 0.00 0.00 0.00 44 1019.7
20260901102543 83 146 4.0 8.0 0.00 0.00 0.00 46 1019.7
20260901102041 83 143 2.0 7.0 0.00 0.00 0.00 46 1019.7
20260901101543 83 99 0.0 7.0 0.00 0.00 0.00 45 1019.7
20260901101033 83 172 0.0 9.0 0.00 0.00 0.00 44 1019.7
20260901100557 82 150 2.0 9.0 0.00 0.00 0.00 44 1019.7
20260901100045 83 148 4.0 7.0 0.00 0.00 0.00 44 1019.8
20260901095548 83 148 0.0 7.0 0.00 0.00 0.00 44 1019.8
20260901095037 82 113 1.0 7.0 0.00 0.00 0.00 44 1019.8
20260901094557 82 154 0.0 3.0 0.00 0.00 0.00 44 1019.8
20260901094050 82 128 0.0 5.0 0.00 0.00 0.00 43 1019.8
20260901093552 82 48 1.0 5.0 0.00 0.00 0.00 43 1019.8
20260901093042 82 77 1.0 7.0 0.00 0.00 0.00 43 1019.9
20260901092545 82 150 2.0 7.0 0.00 0.00 0.00 45 1019.9
20260901092035 82 171 1.0 7.0 0.00 0.00 0.00 43 1019.9
20260901091534 82 79 1.0 5.0 0.00 0.00 0.00 42 1019.9
20260901091040 82 29 1.0 5.0 0.00 0.00 0.00 42 1019.9
20260901090602 82 97 2.0 4.0 0.00 0.00 0.00 42 1019.9
20260901090050 81 56 0.0 3.0 0.00 0.00 0.00 40 1019.9
20260901085613 81 97 1.0 8.0 0.00 0.00 0.00 39 1019.8
20260901085038 81 116 2.0 8.0 0.00 0.00 0.00 38 1019.8
20260901084542 80 145 3.0 8.0 0.00 0.00 0.00 39 1019.8
20260901084049 80 86 2.0 6.0 0.00 0.00 0.00 39 1019.8
20260901083550 80 78 0.0 9.0 0.00 0.00 0.00 40 1019.7
20260901083120 80 104 2.0 9.0 0.00 0.00 0.00 40 1019.8
20260901082533 79 132 3.0 7.0 0.00 0.00 0.00 40 1019.7
20260901082038 79 122 2.0 6.0 0.00 0.00 0.00 41 1019.7
20260901081538 79 129 1.0 5.0 0.00 0.00 0.00 42 1019.6
20260901081048 79 138 0.0 5.0 0.00 0.00 0.00 42 1019.6
20260901080548 78 119 2.0 5.0 0.00 0.00 0.00 43 1019.6
20260901080057 78 132 0.0 5.0 0.00 0.00 0.00 44 1019.5
20260901075535 78 134 0.0 5.0 0.00 0.00 0.00 45 1019.5
20260901075037 78 102 2.0 5.0 0.00 0.00 0.00 45 1019.4
20260901074541 77 145 0.0 0.0 0.00 0.00 0.00 49 1019.4
20260901074044 77 145 0.0 0.0 0.00 0.00 0.00 47 1019.4
20260901073545 76 145 0.0 3.0 0.00 0.00 0.00 49 1019.4
20260901073036 77 145 1.0 3.0 0.00 0.00 0.00 52 1019.4
20260901072538 76 153 0.0 0.0 0.00 0.00 0.00 49 1019.3
20260901072046 76 153 0.0 0.0 0.00 0.00 0.00 47 1019.2
20260901071548 76 153 0.0 0.0 0.00 0.00 0.00 49 1019.2
20260901071038 76 153 0.0 5.0 0.00 0.00 0.00 50 1019.2
20260901070536 76 153 1.0 5.0 0.00 0.00 0.00 51 1019.2
20260901070043 75 309 0.0 0.0 0.00 0.00 0.00 53 1019.1
20260901065605 75 309 0.0 0.0 0.00 0.00 0.00 53 1019.1
20260901065034 75 309 0.0 0.0 0.00 0.00 0.00 54 1019.0
20260901064556 74 314 0.0 0.0 0.00 0.00 0.00 55 1018.9
20260901064110 73 314 0.0 0.0 0.00 0.00 0.00 54 1018.8
20260901063611 73 314 0.0 3.0 0.00 0.00 0.00 56 1018.8
20260901063035 72 316 0.0 0.0 0.00 0.00 0.00 56 1018.7
20260901062535 72 315 0.0 0.0 0.00 0.00 0.00 57 1018.7
20260901062043 72 315 0.0 0.0 0.00 0.00 0.00 57 1018.7
20260901061544 71 315 0.0 0.0 0.00 0.00 0.00 58 1018.6
20260901061101 71 315 0.0 0.0 0.00 0.00 0.00 58 1018.5
20260901060544 70 315 0.0 0.0 0.00 0.00 0.00 58 1018.4
20260901060035 70 315 0.0 0.0 0.00 0.00 0.00 58 1018.4
20260901055534 70 315 0.0 0.0 0.00 0.00 0.00 56 1018.3
20260901055043 69 315 0.0 0.0 0.00 0.00 0.00 58 1018.3
20260901054546 69 315 0.0 0.0 0.00 0.00 0.00 59 1018.2
20260901054100 69 316 0.0 0.0 0.00 0.00 0.00 58 1018.2
20260901053533 69 316 0.0 0.0 0.00 0.00 0.00 56 1018.2
20260901053042 68 315 0.0 0.0 0.00 0.00 0.00 55 1018.1
20260901052540 68 315 0.0 0.0 0.00 0.00 0.00 58 1018.1
20260901052038 68 315 0.0 0.0 0.00 0.00 0.00 56 1018.1
20260901051534 67 315 0.0 0.0 0.00 0.00 0.00 57 1018.1
20260901051045 68 316 0.0 0.0 0.00 0.00 0.00 56 1018.0
20260901050545 68 315 0.0 0.0 0.00 0.00 0.00 56 1018.0
20260901050035 67 315 0.0 0.0 0.00 0.00 0.00 55 1017.9
20260901045536 68 316 0.0 0.0 0.00 0.00 0.00 56 1017.9
20260901045048 68 315 0.0 0.0 0.00 0.00 0.00 53 1017.9
20260901044548 68 315 0.0 0.0 0.00 0.00 0.00 56 1017.9
20260901044059 68 315 0.0 0.0 0.00 0.00 0.00 55 1017.8
20260901043535 69 315 0.0 0.0 0.00 0.00 0.00 52 1017.7
20260901043107 68 315 0.0 0.0 0.00 0.00 0.00 52 1017.6
20260901042549 67 316 0.0 0.0 0.00 0.00 0.00 53 1017.6
20260901042038 68 316 0.0 0.0 0.00 0.00 0.00 54 1017.6
20260901041544 68 315 0.0 0.0 0.00 0.00 0.00 54 1017.6
20260901041102 68 315 0.0 0.0 0.00 0.00 0.00 54 1017.6
20260901040543 67 315 0.0 0.0 0.00 0.00 0.00 55 1017.6
20260901040038 67 315 0.0 0.0 0.00 0.00 0.00 56 1017.5
20260901035540 68 315 0.0 0.0 0.00 0.00 0.00 57 1017.4
20260901035046 67 307 0.0 0.0 0.00 0.00 0.00 57 1017.4
20260901034540 68 301 0.0 0.0 0.00 0.00 0.00 57 1017.4
20260901034058 68 301 0.0 0.0 0.00 0.00 0.00 55 1017.4
20260901033535 68 301 0.0 0.0 0.00 0.00 0.00 55 1017.2
20260901033051 68 301 0.0 0.0 0.00 0.00 0.00 53 1017.1
20260901032556 68 301 0.0 0.0 0.00 0.00 0.00 56 1017.0
20260901032048 68 301 0.0 0.0 0.00 0.00 0.00 56 1017.0
20260901031548 68 301 0.0 0.0 0.00 0.00 0.00 58 1017.0
20260901031037 69 301 0.0 0.0 0.00 0.00 0.00 58 1017.0
20260901030559 69 301 0.0 0.0 0.00 0.00 0.00 54 1017.0
20260901030049 69 301 0.0 0.0 0.00 0.00 0.00 55 1017.0
20260901025532 70 277 0.0 0.0 0.00 0.00 0.00 54 1016.9
20260901025038 70 294 0.0 5.0 0.00 0.00 0.00 53 1016.9
20260901024541 69 294 1.0 5.0 0.00 0.00 0.00 53 1017.0
20260901024051 69 282 0.0 4.0 0.00 0.00 0.00 55 1017.0
20260901023535 69 282 0.0 4.0 0.00 0.00 0.00 56 1017.0
20260901023040 69 275 0.0 2.0 0.00 0.00 0.00 56 1016.9
20260901022603 69 270 0.0 2.0 0.00 0.00 0.00 55 1016.9
20260901022033 68 299 0.0 2.0 0.00 0.00 0.00 56 1016.9
20260901021539 69 299 1.0 3.0 0.00 0.00 0.00 58 1016.9
20260901021057 68 299 1.0 3.0 0.00 0.00 0.00 57 1016.8
20260901020533 68 299 0.0 4.0 0.00 0.00 0.00 59 1016.9
20260901020044 68 299 2.0 4.0 0.00 0.00 0.00 57 1016.8
20260901015547 68 299 0.0 4.0 0.00 0.00 0.00 56 1016.9
20260901015105 69 299 2.0 4.0 0.00 0.00 0.00 57 1016.9
20260901014543 69 299 0.0 3.0 0.00 0.00 0.00 57 1016.8
20260901014032 69 299 0.0 4.0 0.00 0.00 0.00 54 1016.8
20260901013535 69 299 1.0 4.0 0.00 0.00 0.00 55 1016.9
20260901013040 69 299 2.0 3.0 0.00 0.00 0.00 55 1016.9
20260901012542 70 299 0.0 0.0 0.00 0.00 0.00 56 1016.9
20260901012032 70 299 0.0 3.0 0.00 0.00 0.00 57 1016.9
20260901011535 70 299 0.0 3.0 0.00 0.00 0.00 56 1016.9
20260901011041 70 299 0.0 3.0 0.00 0.00 0.00 55 1016.9
20260901010544 70 299 1.0 3.0 0.00 0.00 0.00 57 1016.8
20260901010032 71 299 1.0 3.0 0.00 0.00 0.00 55 1016.8
20260901005534 72 299 0.0 3.0 0.00 0.00 0.00 53 1016.8
20260901005041 72 253 0.0 3.0 0.00 0.00 0.00 52 1016.8
20260901004605 72 299 0.0 9.0 0.00 0.00 0.00 52 1016.7
20260901004056 72 305 1.0 9.0 0.00 0.00 0.00 54 1016.7
20260901003533 72 265 0.0 5.0 0.00 0.00 0.00 51 1016.8
20260901003040 71 262 2.0 8.0 0.00 0.00 0.00 51 1016.7